Location: Karcze
(52.0945°N, 22.4786°E)
Time: 01:31:59
(UTC+00:00)

USA 215 - Pass Details

Date: 14 July 2020
Orbit: 1102 x 1106 km, 123.0° (Epoch: 31 July)

Event Time Altitude Azimuth Distance (km) Brightness Sun altitude
Rises 01:31:03 0° 88° (E) 3,922 6.8 -7.0°
Reaches altitude 10° 01:33:33 10° 86° (E) 2,964 6.3 -6.7°
Maximum altitude 01:39:58 61° 8° (N) 1,242 3.9 -6.1°
Drops below altitude 10° 01:46:23 10° 290° (WNW) 2,965 5.3 -5.4°
Sets 01:48:54 0° 287° (WNW) 3,924 5.9 -5.1°
